Find SONATE-2

NORAD ID: 59112 Int'l Des: 2024-043 Owner: WURZ Country: D operational
LEOCIRCULARRETROGRADE

現在のビュー

3D地球を読み込み中...

About SONATE-2

SONATE-2 (NORAD 59112) is a satellite launched Mar 4, 2024 by WURZ of D. It operates in LEO, CIRCULAR, RETROGRADE orbit with a mass of 12.00 kg.

次回通過

Passes for default location (London). Set your location on the main map for personalized predictions.

高度履歴

Loading altitude history...

軌道要素

1 59112U 24043Q 26194.95526617 .00029149 00000-0 35093-3 0 9992
2 59112 97.5553 347.0382 0006889 110.1263 250.0735 15.60757395132068
Epoch: Jul 13, 2026 • Age: 18 hours

現在のステータス

高度 392.8 km
遠地点 / 近地点 N/A
速度 7.67 km/s
衛星直下点 -11.02°S, 156.58°E
打ち上げ日 Mar 4, 2024
運用期間 2.3 years
タイプ other

技術仕様

分類 Payload
質量 12.00 kg
乾燥質量 12.00 kg
総質量 12.00 kg
長さ 0.30 m
直径 0.10 m
スパン 0.60 m
形状 Box + 2 pan
製造者 WURZ
バスタイプ Cubesat 6U
フェーズステータス In Orbit
所有者/国 WURZ/D

Most Searched